Location: Arboyeti
(42.1122°N, 44.6017°E)
Time: 02:55:46
(UTC+00:00)

X-37B - Pass Details

Date: 28 September 2021
Orbit: 385 x 389 km, 45.0° (Epoch: 17 October)

Event Time Altitude Azimuth Distance (km) Brightness Sun altitude
Exits shadow 02:26:08 - 288° (WNW) 1,654 3.2 -6.2°
Reaches altitude 10° 02:26:44 10° 290° (WNW) 1,414 2.8 -6.1°
Maximum altitude 02:29:52 56° 10° (N) 465 1.1 -5.5°
Drops below altitude 10° 02:33:00 10° 90° (E) 1,414 5.4 -5.0°
Sets 02:35:06 0° 95° (E) 2,268 7.1 -4.6°
